Index of /20260506/WXO-DD/model_caps/3km/12/024
Name Last modified Size Description
Parent Directory -
20260506T12Z_MSC_CAPS_AbsoluteVorticity_IsbL-0250_RLatLon0.03_PT024H.grib2 2026-05-06 18:17 900K
20260506T12Z_MSC_CAPS_AbsoluteVorticity_IsbL-0500_RLatLon0.03_PT024H.grib2 2026-05-06 18:17 1.1M
20260506T12Z_MSC_CAPS_AbsoluteVorticity_IsbL-0700_RLatLon0.03_PT024H.grib2 2026-05-06 18:17 1.1M
20260506T12Z_MSC_CAPS_AbsoluteVorticity_IsbL-0850_RLatLon0.03_PT024H.grib2 2026-05-06 18:17 1.6M
20260506T12Z_MSC_CAPS_AbsoluteVorticity_IsbL-1000_RLatLon0.03_PT024H.grib2 2026-05-06 18:17 1.8M
20260506T12Z_MSC_CAPS_AirDensity_AGL-120m_RLatLon0.03_PT024H.grib2 2026-05-06 18:17 1.4M
20260506T12Z_MSC_CAPS_AirDensity_AGL-40m_RLatLon0.03_PT024H.grib2 2026-05-06 18:17 1.4M
20260506T12Z_MSC_CAPS_AirDensity_AGL-80m_RLatLon0.03_PT024H.grib2 2026-05-06 18:17 1.4M
20260506T12Z_MSC_CAPS_AirTemp_AGL-120m_RLatLon0.03_PT024H.grib2 2026-05-06 18:17 1.4M
20260506T12Z_MSC_CAPS_AirTemp_AGL-2m_RLatLon0.03_PT024H.grib2 2026-05-06 18:17 1.8M
20260506T12Z_MSC_CAPS_AirTemp_AGL-40m_RLatLon0.03_PT024H.grib2 2026-05-06 18:17 1.5M
20260506T12Z_MSC_CAPS_AirTemp_AGL-80m_RLatLon0.03_PT024H.grib2 2026-05-06 18:17 1.5M
20260506T12Z_MSC_CAPS_AirTemp_IsbL-0050_RLatLon0.03_PT024H.grib2 2026-05-06 18:17 678K
20260506T12Z_MSC_CAPS_AirTemp_IsbL-0100_RLatLon0.03_PT024H.grib2 2026-05-06 18:17 782K
20260506T12Z_MSC_CAPS_AirTemp_IsbL-0150_RLatLon0.03_PT024H.grib2 2026-05-06 18:17 751K
20260506T12Z_MSC_CAPS_AirTemp_IsbL-0175_RLatLon0.03_PT024H.grib2 2026-05-06 18:17 780K
20260506T12Z_MSC_CAPS_AirTemp_IsbL-0200_RLatLon0.03_PT024H.grib2 2026-05-06 18:17 802K
20260506T12Z_MSC_CAPS_AirTemp_IsbL-0225_RLatLon0.03_PT024H.grib2 2026-05-06 18:17 800K
20260506T12Z_MSC_CAPS_AirTemp_IsbL-0250_RLatLon0.03_PT024H.grib2 2026-05-06 18:17 1.0M
20260506T12Z_MSC_CAPS_AirTemp_IsbL-0275_RLatLon0.03_PT024H.grib2 2026-05-06 18:17 1.0M
20260506T12Z_MSC_CAPS_AirTemp_IsbL-0300_RLatLon0.03_PT024H.grib2 2026-05-06 18:17 1.0M
20260506T12Z_MSC_CAPS_AirTemp_IsbL-0350_RLatLon0.03_PT024H.grib2 2026-05-06 18:17 755K
20260506T12Z_MSC_CAPS_AirTemp_IsbL-0400_RLatLon0.03_PT024H.grib2 2026-05-06 18:17 753K
20260506T12Z_MSC_CAPS_AirTemp_IsbL-0450_RLatLon0.03_PT024H.grib2 2026-05-06 18:17 770K
20260506T12Z_MSC_CAPS_AirTemp_IsbL-0500_RLatLon0.03_PT024H.grib2 2026-05-06 18:17 788K
20260506T12Z_MSC_CAPS_AirTemp_IsbL-0550_RLatLon0.03_PT024H.grib2 2026-05-06 18:17 798K
20260506T12Z_MSC_CAPS_AirTemp_IsbL-0600_RLatLon0.03_PT024H.grib2 2026-05-06 18:17 814K
20260506T12Z_MSC_CAPS_AirTemp_IsbL-0650_RLatLon0.03_PT024H.grib2 2026-05-06 18:17 843K
20260506T12Z_MSC_CAPS_AirTemp_IsbL-0700_RLatLon0.03_PT024H.grib2 2026-05-06 18:17 881K
20260506T12Z_MSC_CAPS_AirTemp_IsbL-0750_RLatLon0.03_PT024H.grib2 2026-05-06 18:17 915K
20260506T12Z_MSC_CAPS_AirTemp_IsbL-0800_RLatLon0.03_PT024H.grib2 2026-05-06 18:17 938K
20260506T12Z_MSC_CAPS_AirTemp_IsbL-0850_RLatLon0.03_PT024H.grib2 2026-05-06 18:17 1.1M
20260506T12Z_MSC_CAPS_AirTemp_IsbL-0875_RLatLon0.03_PT024H.grib2 2026-05-06 18:17 1.1M
20260506T12Z_MSC_CAPS_AirTemp_IsbL-0900_RLatLon0.03_PT024H.grib2 2026-05-06 18:17 1.1M
20260506T12Z_MSC_CAPS_AirTemp_IsbL-0925_RLatLon0.03_PT024H.grib2 2026-05-06 18:17 1.1M
20260506T12Z_MSC_CAPS_AirTemp_IsbL-0950_RLatLon0.03_PT024H.grib2 2026-05-06 18:17 1.1M
20260506T12Z_MSC_CAPS_AirTemp_IsbL-0970_RLatLon0.03_PT024H.grib2 2026-05-06 18:17 1.1M
20260506T12Z_MSC_CAPS_AirTemp_IsbL-0985_RLatLon0.03_PT024H.grib2 2026-05-06 18:17 1.1M
20260506T12Z_MSC_CAPS_AirTemp_IsbL-1000_RLatLon0.03_PT024H.grib2 2026-05-06 18:17 1.0M
20260506T12Z_MSC_CAPS_AirTemp_IsbL-1015_RLatLon0.03_PT024H.grib2 2026-05-06 18:17 1.1M
20260506T12Z_MSC_CAPS_Albedo_Sfc_RLatLon0.03_PT024H.grib2 2026-05-06 18:17 2.7M
20260506T12Z_MSC_CAPS_CAPE_Sfc_RLatLon0.03_PT024H.grib2 2026-05-06 18:17 256K
20260506T12Z_MSC_CAPS_CloudWater_EAtm_RLatLon0.03_PT024H.grib2 2026-05-06 18:17 1.6M
20260506T12Z_MSC_CAPS_ConvectivePrecip-Accum_Sfc_RLatLon0.03_PT024H.grib2 2026-05-06 18:17 4.3M
20260506T12Z_MSC_CAPS_DewPointDepression_AGL-120m_RLatLon0.03_PT024H.grib2 2026-05-06 18:17 2.1M
20260506T12Z_MSC_CAPS_DewPointDepression_AGL-2m_RLatLon0.03_PT024H.grib2 2026-05-06 18:17 2.2M
20260506T12Z_MSC_CAPS_DewPointDepression_AGL-40m_RLatLon0.03_PT024H.grib2 2026-05-06 18:17 2.2M
20260506T12Z_MSC_CAPS_DewPointDepression_AGL-80m_RLatLon0.03_PT024H.grib2 2026-05-06 18:17 2.2M
20260506T12Z_MSC_CAPS_DewPointDepression_IsbL-0050_RLatLon0.03_PT024H.grib2 2026-05-06 18:17 3.0K
20260506T12Z_MSC_CAPS_DewPointDepression_IsbL-0100_RLatLon0.03_PT024H.grib2 2026-05-06 18:17 56K
20260506T12Z_MSC_CAPS_DewPointDepression_IsbL-0150_RLatLon0.03_PT024H.grib2 2026-05-06 18:17 60K
20260506T12Z_MSC_CAPS_DewPointDepression_IsbL-0175_RLatLon0.03_PT024H.grib2 2026-05-06 18:17 208K
20260506T12Z_MSC_CAPS_DewPointDepression_IsbL-0200_RLatLon0.03_PT024H.grib2 2026-05-06 18:17 406K
20260506T12Z_MSC_CAPS_DewPointDepression_IsbL-0225_RLatLon0.03_PT024H.grib2 2026-05-06 18:17 594K
20260506T12Z_MSC_CAPS_DewPointDepression_IsbL-0250_RLatLon0.03_PT024H.grib2 2026-05-06 18:17 846K
20260506T12Z_MSC_CAPS_DewPointDepression_IsbL-0275_RLatLon0.03_PT024H.grib2 2026-05-06 18:17 1.0M
20260506T12Z_MSC_CAPS_DewPointDepression_IsbL-0300_RLatLon0.03_PT024H.grib2 2026-05-06 18:17 1.0M
20260506T12Z_MSC_CAPS_DewPointDepression_IsbL-0350_RLatLon0.03_PT024H.grib2 2026-05-06 18:17 1.1M
20260506T12Z_MSC_CAPS_DewPointDepression_IsbL-0400_RLatLon0.03_PT024H.grib2 2026-05-06 18:17 1.1M
20260506T12Z_MSC_CAPS_DewPointDepression_IsbL-0450_RLatLon0.03_PT024H.grib2 2026-05-06 18:17 1.2M
20260506T12Z_MSC_CAPS_DewPointDepression_IsbL-0500_RLatLon0.03_PT024H.grib2 2026-05-06 18:17 1.2M
20260506T12Z_MSC_CAPS_DewPointDepression_IsbL-0550_RLatLon0.03_PT024H.grib2 2026-05-06 18:17 1.2M
20260506T12Z_MSC_CAPS_DewPointDepression_IsbL-0600_RLatLon0.03_PT024H.grib2 2026-05-06 18:17 1.2M
20260506T12Z_MSC_CAPS_DewPointDepression_IsbL-0650_RLatLon0.03_PT024H.grib2 2026-05-06 18:17 1.3M
20260506T12Z_MSC_CAPS_DewPointDepression_IsbL-0700_RLatLon0.03_PT024H.grib2 2026-05-06 18:17 1.3M
20260506T12Z_MSC_CAPS_DewPointDepression_IsbL-0750_RLatLon0.03_PT024H.grib2 2026-05-06 18:17 1.4M
20260506T12Z_MSC_CAPS_DewPointDepression_IsbL-0800_RLatLon0.03_PT024H.grib2 2026-05-06 18:17 1.4M
20260506T12Z_MSC_CAPS_DewPointDepression_IsbL-0850_RLatLon0.03_PT024H.grib2 2026-05-06 18:17 1.4M
20260506T12Z_MSC_CAPS_DewPointDepression_IsbL-0875_RLatLon0.03_PT024H.grib2 2026-05-06 18:17 1.4M
20260506T12Z_MSC_CAPS_DewPointDepression_IsbL-0900_RLatLon0.03_PT024H.grib2 2026-05-06 18:17 1.4M
20260506T12Z_MSC_CAPS_DewPointDepression_IsbL-0925_RLatLon0.03_PT024H.grib2 2026-05-06 18:17 1.4M
20260506T12Z_MSC_CAPS_DewPointDepression_IsbL-0950_RLatLon0.03_PT024H.grib2 2026-05-06 18:17 1.4M
20260506T12Z_MSC_CAPS_DewPointDepression_IsbL-0970_RLatLon0.03_PT024H.grib2 2026-05-06 18:17 1.4M
20260506T12Z_MSC_CAPS_DewPointDepression_IsbL-0985_RLatLon0.03_PT024H.grib2 2026-05-06 18:17 1.4M
20260506T12Z_MSC_CAPS_DewPointDepression_IsbL-1000_RLatLon0.03_PT024H.grib2 2026-05-06 18:17 1.4M
20260506T12Z_MSC_CAPS_DewPointDepression_IsbL-1015_RLatLon0.03_PT024H.grib2 2026-05-06 18:17 1.4M
20260506T12Z_MSC_CAPS_DewPoint_AGL-120m_RLatLon0.03_PT024H.grib2 2026-05-06 18:17 3.7M
20260506T12Z_MSC_CAPS_DewPoint_AGL-2m_RLatLon0.03_PT024H.grib2 2026-05-06 18:17 1.8M
20260506T12Z_MSC_CAPS_DewPoint_AGL-40m_RLatLon0.03_PT024H.grib2 2026-05-06 18:17 3.8M
20260506T12Z_MSC_CAPS_DewPoint_AGL-80m_RLatLon0.03_PT024H.grib2 2026-05-06 18:17 3.8M
20260506T12Z_MSC_CAPS_DownwardLongwaveRadiationFlux-Accum_Sfc_RLatLon0.03_PT024H.grib2 2026-05-06 18:17 2.4M
20260506T12Z_MSC_CAPS_DownwardShortwaveRadiationFlux-Accum_NTAtm_RLatLon0.03_PT024H.grib2 2026-05-06 18:17 549K
20260506T12Z_MSC_CAPS_DownwardShortwaveRadiationFlux-Accum_Sfc_RLatLon0.03_PT024H.grib2 2026-05-06 18:17 3.3M
20260506T12Z_MSC_CAPS_FreezingRain-Accum_Sfc_RLatLon0.03_PT024H.grib2 2026-05-06 18:17 700K
20260506T12Z_MSC_CAPS_GeopotentialHeight_IsbL-0050_RLatLon0.03_PT024H.grib2 2026-05-06 18:17 616K
20260506T12Z_MSC_CAPS_GeopotentialHeight_IsbL-0100_RLatLon0.03_PT024H.grib2 2026-05-06 18:17 807K
20260506T12Z_MSC_CAPS_GeopotentialHeight_IsbL-0150_RLatLon0.03_PT024H.grib2 2026-05-06 18:17 602K
20260506T12Z_MSC_CAPS_GeopotentialHeight_IsbL-0175_RLatLon0.03_PT024H.grib2 2026-05-06 18:17 722K
20260506T12Z_MSC_CAPS_GeopotentialHeight_IsbL-0200_RLatLon0.03_PT024H.grib2 2026-05-06 18:17 737K
20260506T12Z_MSC_CAPS_GeopotentialHeight_IsbL-0225_RLatLon0.03_PT024H.grib2 2026-05-06 18:17 751K
20260506T12Z_MSC_CAPS_GeopotentialHeight_IsbL-0250_RLatLon0.03_PT024H.grib2 2026-05-06 18:17 765K
20260506T12Z_MSC_CAPS_GeopotentialHeight_IsbL-0275_RLatLon0.03_PT024H.grib2 2026-05-06 18:17 771K
20260506T12Z_MSC_CAPS_GeopotentialHeight_IsbL-0300_RLatLon0.03_PT024H.grib2 2026-05-06 18:17 774K
20260506T12Z_MSC_CAPS_GeopotentialHeight_IsbL-0350_RLatLon0.03_PT024H.grib2 2026-05-06 18:17 775K
20260506T12Z_MSC_CAPS_GeopotentialHeight_IsbL-0400_RLatLon0.03_PT024H.grib2 2026-05-06 18:17 772K
20260506T12Z_MSC_CAPS_GeopotentialHeight_IsbL-0450_RLatLon0.03_PT024H.grib2 2026-05-06 18:17 765K
20260506T12Z_MSC_CAPS_GeopotentialHeight_IsbL-0500_RLatLon0.03_PT024H.grib2 2026-05-06 18:17 756K
20260506T12Z_MSC_CAPS_GeopotentialHeight_IsbL-0550_RLatLon0.03_PT024H.grib2 2026-05-06 18:17 637K
20260506T12Z_MSC_CAPS_GeopotentialHeight_IsbL-0600_RLatLon0.03_PT024H.grib2 2026-05-06 18:17 631K
20260506T12Z_MSC_CAPS_GeopotentialHeight_IsbL-0650_RLatLon0.03_PT024H.grib2 2026-05-06 18:17 803K
20260506T12Z_MSC_CAPS_GeopotentialHeight_IsbL-0700_RLatLon0.03_PT024H.grib2 2026-05-06 18:17 801K
20260506T12Z_MSC_CAPS_GeopotentialHeight_IsbL-0750_RLatLon0.03_PT024H.grib2 2026-05-06 18:17 882K
20260506T12Z_MSC_CAPS_GeopotentialHeight_IsbL-0800_RLatLon0.03_PT024H.grib2 2026-05-06 18:17 887K
20260506T12Z_MSC_CAPS_GeopotentialHeight_IsbL-0850_RLatLon0.03_PT024H.grib2 2026-05-06 18:17 892K
20260506T12Z_MSC_CAPS_GeopotentialHeight_IsbL-0875_RLatLon0.03_PT024H.grib2 2026-05-06 18:17 898K
20260506T12Z_MSC_CAPS_GeopotentialHeight_IsbL-0900_RLatLon0.03_PT024H.grib2 2026-05-06 18:17 905K
20260506T12Z_MSC_CAPS_GeopotentialHeight_IsbL-0925_RLatLon0.03_PT024H.grib2 2026-05-06 18:17 914K
20260506T12Z_MSC_CAPS_GeopotentialHeight_IsbL-0950_RLatLon0.03_PT024H.grib2 2026-05-06 18:17 926K
20260506T12Z_MSC_CAPS_GeopotentialHeight_IsbL-0970_RLatLon0.03_PT024H.grib2 2026-05-06 18:17 936K
20260506T12Z_MSC_CAPS_GeopotentialHeight_IsbL-0985_RLatLon0.03_PT024H.grib2 2026-05-06 18:17 946K
20260506T12Z_MSC_CAPS_GeopotentialHeight_IsbL-1000_RLatLon0.03_PT024H.grib2 2026-05-06 18:17 957K
20260506T12Z_MSC_CAPS_GeopotentialHeight_IsbL-1015_RLatLon0.03_PT024H.grib2 2026-05-06 18:17 968K
20260506T12Z_MSC_CAPS_GeopotentialHeight_Sfc_RLatLon0.03_PT024H.grib2 2026-05-06 18:17 1.0M
20260506T12Z_MSC_CAPS_IcePellets-Accum_Sfc_RLatLon0.03_PT024H.grib2 2026-05-06 18:17 27K
20260506T12Z_MSC_CAPS_LatentHeatNetFlux_Sfc_RLatLon0.03_PT024H.grib2 2026-05-06 18:17 1.5M
20260506T12Z_MSC_CAPS_LiftedIndex-MU-VT_IsbL-0500_RLatLon0.03_PT024H.grib2 2026-05-06 18:17 3.3M
20260506T12Z_MSC_CAPS_MixedLayerThickness_Sfc_RLatLon0.03_PT024H.nc 2026-05-06 18:13 17M
20260506T12Z_MSC_CAPS_NetLongwaveRadiationFlux-Accum_Sfc_RLatLon0.03_PT024H.grib2 2026-05-06 18:17 3.1M
20260506T12Z_MSC_CAPS_NetShortwaveRadiationFlux-Accum_Sfc_RLatLon0.03_PT024H.grib2 2026-05-06 18:17 3.2M
20260506T12Z_MSC_CAPS_PlanetaryBoundaryLayerHeight_Sfc_RLatLon0.03_PT024H.grib2 2026-05-06 18:17 3.0M
20260506T12Z_MSC_CAPS_Precip-Accum_Sfc_RLatLon0.03_PT024H.grib2 2026-05-06 18:17 4.8M
20260506T12Z_MSC_CAPS_PrecipRate_Sfc_RLatLon0.03_PT024H.grib2 2026-05-06 18:17 244K
20260506T12Z_MSC_CAPS_PrecipType-Instant_Sfc_RLatLon0.03_PT024H.grib2 2026-05-06 18:17 2.1M
20260506T12Z_MSC_CAPS_Pressure_MSL_RLatLon0.03_PT024H.grib2 2026-05-06 18:17 763K
20260506T12Z_MSC_CAPS_Pressure_Sfc_RLatLon0.03_PT024H.grib2 2026-05-06 18:17 1.2M
20260506T12Z_MSC_CAPS_RadiativeTemp_Sfc_RLatLon0.03_PT024H.grib2 2026-05-06 18:17 2.1M
20260506T12Z_MSC_CAPS_Rain-Accum_Sfc_RLatLon0.03_PT024H.grib2 2026-05-06 18:17 2.3M
20260506T12Z_MSC_CAPS_RelativeHumidity_AGL-120m_RLatLon0.03_PT024H.grib2 2026-05-06 18:17 2.9M
20260506T12Z_MSC_CAPS_RelativeHumidity_AGL-2m_RLatLon0.03_PT024H.grib2 2026-05-06 18:17 3.0M
20260506T12Z_MSC_CAPS_RelativeHumidity_AGL-40m_RLatLon0.03_PT024H.grib2 2026-05-06 18:17 2.9M
20260506T12Z_MSC_CAPS_RelativeHumidity_AGL-80m_RLatLon0.03_PT024H.grib2 2026-05-06 18:17 2.9M
20260506T12Z_MSC_CAPS_RelativeHumidity_IsbL-0050_RLatLon0.03_PT024H.grib2 2026-05-06 18:17 713K
20260506T12Z_MSC_CAPS_RelativeHumidity_IsbL-0100_RLatLon0.03_PT024H.grib2 2026-05-06 18:17 1.0M
20260506T12Z_MSC_CAPS_RelativeHumidity_IsbL-0150_RLatLon0.03_PT024H.grib2 2026-05-06 18:17 575K
20260506T12Z_MSC_CAPS_RelativeHumidity_IsbL-0175_RLatLon0.03_PT024H.grib2 2026-05-06 18:17 474K
20260506T12Z_MSC_CAPS_RelativeHumidity_IsbL-0200_RLatLon0.03_PT024H.grib2 2026-05-06 18:17 663K
20260506T12Z_MSC_CAPS_RelativeHumidity_IsbL-0225_RLatLon0.03_PT024H.grib2 2026-05-06 18:17 904K
20260506T12Z_MSC_CAPS_RelativeHumidity_IsbL-0250_RLatLon0.03_PT024H.grib2 2026-05-06 18:17 1.1M
20260506T12Z_MSC_CAPS_RelativeHumidity_IsbL-0275_RLatLon0.03_PT024H.grib2 2026-05-06 18:17 1.4M
20260506T12Z_MSC_CAPS_RelativeHumidity_IsbL-0300_RLatLon0.03_PT024H.grib2 2026-05-06 18:17 1.7M
20260506T12Z_MSC_CAPS_RelativeHumidity_IsbL-0350_RLatLon0.03_PT024H.grib2 2026-05-06 18:17 2.0M
20260506T12Z_MSC_CAPS_RelativeHumidity_IsbL-0400_RLatLon0.03_PT024H.grib2 2026-05-06 18:17 2.1M
20260506T12Z_MSC_CAPS_RelativeHumidity_IsbL-0450_RLatLon0.03_PT024H.grib2 2026-05-06 18:17 2.0M
20260506T12Z_MSC_CAPS_RelativeHumidity_IsbL-0500_RLatLon0.03_PT024H.grib2 2026-05-06 18:17 2.2M
20260506T12Z_MSC_CAPS_RelativeHumidity_IsbL-0550_RLatLon0.03_PT024H.grib2 2026-05-06 18:17 2.1M
20260506T12Z_MSC_CAPS_RelativeHumidity_IsbL-0600_RLatLon0.03_PT024H.grib2 2026-05-06 18:17 2.3M
20260506T12Z_MSC_CAPS_RelativeHumidity_IsbL-0650_RLatLon0.03_PT024H.grib2 2026-05-06 18:17 2.3M
20260506T12Z_MSC_CAPS_RelativeHumidity_IsbL-0700_RLatLon0.03_PT024H.grib2 2026-05-06 18:17 2.3M
20260506T12Z_MSC_CAPS_RelativeHumidity_IsbL-0750_RLatLon0.03_PT024H.grib2 2026-05-06 18:17 2.4M
20260506T12Z_MSC_CAPS_RelativeHumidity_IsbL-0800_RLatLon0.03_PT024H.grib2 2026-05-06 18:17 2.6M
20260506T12Z_MSC_CAPS_RelativeHumidity_IsbL-0850_RLatLon0.03_PT024H.grib2 2026-05-06 18:17 2.7M
20260506T12Z_MSC_CAPS_RelativeHumidity_IsbL-0875_RLatLon0.03_PT024H.grib2 2026-05-06 18:17 2.7M
20260506T12Z_MSC_CAPS_RelativeHumidity_IsbL-0900_RLatLon0.03_PT024H.grib2 2026-05-06 18:17 2.7M
20260506T12Z_MSC_CAPS_RelativeHumidity_IsbL-0925_RLatLon0.03_PT024H.grib2 2026-05-06 18:17 2.8M
20260506T12Z_MSC_CAPS_RelativeHumidity_IsbL-0950_RLatLon0.03_PT024H.grib2 2026-05-06 18:17 2.8M
20260506T12Z_MSC_CAPS_RelativeHumidity_IsbL-0970_RLatLon0.03_PT024H.grib2 2026-05-06 18:17 2.9M
20260506T12Z_MSC_CAPS_RelativeHumidity_IsbL-0985_RLatLon0.03_PT024H.grib2 2026-05-06 18:17 3.0M
20260506T12Z_MSC_CAPS_RelativeHumidity_IsbL-1000_RLatLon0.03_PT024H.grib2 2026-05-06 18:17 3.0M
20260506T12Z_MSC_CAPS_RelativeHumidity_IsbL-1015_RLatLon0.03_PT024H.grib2 2026-05-06 18:17 3.0M
20260506T12Z_MSC_CAPS_Runoff-Accum_Sfc_RLatLon0.03_PT024H.grib2 2026-05-06 18:17 338K
20260506T12Z_MSC_CAPS_SeaIceAreaFraction_Sfc_RLatLon0.03_PT024H.nc 2026-05-06 18:13 15M
20260506T12Z_MSC_CAPS_SeaIceCompressiveStrength_Sfc_RLatLon0.03_PT024H.nc 2026-05-06 18:13 15M
20260506T12Z_MSC_CAPS_SeaIceDivergence_Sfc_RLatLon0.03_PT024H.nc 2026-05-06 18:13 15M
20260506T12Z_MSC_CAPS_SeaIceInternalPressure_Sfc_RLatLon0.03_PT024H.nc 2026-05-06 18:13 15M
20260506T12Z_MSC_CAPS_SeaIceShear_Sfc_RLatLon0.03_PT024H.nc 2026-05-06 18:13 14M
20260506T12Z_MSC_CAPS_SeaIceSnowTemp_Sfc_RLatLon0.03_PT024H.nc 2026-05-06 18:13 14M
20260506T12Z_MSC_CAPS_SeaIceSnowVolume_Sfc_RLatLon0.03_PT024H.nc 2026-05-06 18:13 15M
20260506T12Z_MSC_CAPS_SeaIceVelocityX_Sfc_RLatLon0.03_PT024H.nc 2026-05-06 18:13 15M
20260506T12Z_MSC_CAPS_SeaIceVelocityY_Sfc_RLatLon0.03_PT024H.nc 2026-05-06 18:13 15M
20260506T12Z_MSC_CAPS_SeaIceVolume_Sfc_RLatLon0.03_PT024H.nc 2026-05-06 18:13 15M
20260506T12Z_MSC_CAPS_SeaSurfaceHeight_Sfc_RLatLon0.03_PT024H.nc 2026-05-06 18:13 16M
20260506T12Z_MSC_CAPS_SeaWaterSalinity_DBS-0.5m_RLatLon0.03_PT024H.nc 2026-05-06 18:13 16M
20260506T12Z_MSC_CAPS_SeaWaterSalinity_DBS-all_RLatLon0.03_PT024H.nc 2026-05-06 18:14 107M
20260506T12Z_MSC_CAPS_SeaWaterTemp_DBS-0.5m_RLatLon0.03_PT024H.nc 2026-05-06 18:13 15M
20260506T12Z_MSC_CAPS_SeaWaterTemp_DBS-all_RLatLon0.03_PT024H.nc 2026-05-06 18:14 88M
20260506T12Z_MSC_CAPS_SeaWaterVelocityX_DBS-0.5m_RLatLon0.03_PT024H.nc 2026-05-06 18:13 17M
20260506T12Z_MSC_CAPS_SeaWaterVelocityX_DBS-all_RLatLon0.03_PT024H.nc 2026-05-06 18:14 210M
20260506T12Z_MSC_CAPS_SeaWaterVelocityY_DBS-0.5m_RLatLon0.03_PT024H.nc 2026-05-06 18:13 17M
20260506T12Z_MSC_CAPS_SeaWaterVelocityY_DBS-all_RLatLon0.03_PT024H.nc 2026-05-06 18:14 218M
20260506T12Z_MSC_CAPS_SensibleHeatNetFlux_Sfc_RLatLon0.03_PT024H.grib2 2026-05-06 18:17 2.0M
20260506T12Z_MSC_CAPS_ShowalterIndex_IsbL-0500_RLatLon0.03_PT024H.grib2 2026-05-06 18:17 4.3M
20260506T12Z_MSC_CAPS_Snow-Accum_Sfc_RLatLon0.03_PT024H.grib2 2026-05-06 18:17 3.9M
20260506T12Z_MSC_CAPS_SnowDensity_Sfc_RLatLon0.03_PT024H.grib2 2026-05-06 18:17 1.3M
20260506T12Z_MSC_CAPS_SnowDepthWaterEquivalent_Sfc_RLatLon0.03_PT024H.grib2 2026-05-06 18:17 646K
20260506T12Z_MSC_CAPS_SnowDepth_Sfc_RLatLon0.03_PT024H.grib2 2026-05-06 18:17 1.1M
20260506T12Z_MSC_CAPS_SoilTemp_DBS-0to10cm_RLatLon0.03_PT024H.grib2 2026-05-06 18:17 1.6M
20260506T12Z_MSC_CAPS_SoilTemp_Sfc_RLatLon0.03_PT024H.grib2 2026-05-06 18:17 1.8M
20260506T12Z_MSC_CAPS_SoilVolumetricIceContent_Sfc_RLatLon0.03_PT024H.grib2 2026-05-06 18:17 1.3M
20260506T12Z_MSC_CAPS_SoilVolumetricWaterContent_DBS-0to10cm_RLatLon0.03_PT024H.grib2 2026-05-06 18:17 1.3M
20260506T12Z_MSC_CAPS_SoilVolumetricWaterContent_DBS-0to1cm_RLatLon0.03_PT024H.grib2 2026-05-06 18:17 1.7M
20260506T12Z_MSC_CAPS_SpecificHumidity_AGL-120m_RLatLon0.03_PT024H.grib2 2026-05-06 18:17 1.5M
20260506T12Z_MSC_CAPS_SpecificHumidity_AGL-2m_RLatLon0.03_PT024H.grib2 2026-05-06 18:17 1.8M
20260506T12Z_MSC_CAPS_SpecificHumidity_AGL-40m_RLatLon0.03_PT024H.grib2 2026-05-06 18:17 1.6M
20260506T12Z_MSC_CAPS_SpecificHumidity_AGL-80m_RLatLon0.03_PT024H.grib2 2026-05-06 18:17 1.5M
20260506T12Z_MSC_CAPS_SpecificHumidity_IsbL-0050_RLatLon0.03_PT024H.grib2 2026-05-06 18:17 906K
20260506T12Z_MSC_CAPS_SpecificHumidity_IsbL-0100_RLatLon0.03_PT024H.grib2 2026-05-06 18:17 965K
20260506T12Z_MSC_CAPS_SpecificHumidity_IsbL-0150_RLatLon0.03_PT024H.grib2 2026-05-06 18:17 1.0M
20260506T12Z_MSC_CAPS_SpecificHumidity_IsbL-0175_RLatLon0.03_PT024H.grib2 2026-05-06 18:17 1.0M
20260506T12Z_MSC_CAPS_SpecificHumidity_IsbL-0200_RLatLon0.03_PT024H.grib2 2026-05-06 18:17 884K
20260506T12Z_MSC_CAPS_SpecificHumidity_IsbL-0225_RLatLon0.03_PT024H.grib2 2026-05-06 18:17 1.1M
20260506T12Z_MSC_CAPS_SpecificHumidity_IsbL-0250_RLatLon0.03_PT024H.grib2 2026-05-06 18:17 1.1M
20260506T12Z_MSC_CAPS_SpecificHumidity_IsbL-0275_RLatLon0.03_PT024H.grib2 2026-05-06 18:17 1.1M
20260506T12Z_MSC_CAPS_SpecificHumidity_IsbL-0300_RLatLon0.03_PT024H.grib2 2026-05-06 18:17 1.1M
20260506T12Z_MSC_CAPS_SpecificHumidity_IsbL-0350_RLatLon0.03_PT024H.grib2 2026-05-06 18:17 1.0M
20260506T12Z_MSC_CAPS_SpecificHumidity_IsbL-0400_RLatLon0.03_PT024H.grib2 2026-05-06 18:17 1.0M
20260506T12Z_MSC_CAPS_SpecificHumidity_IsbL-0450_RLatLon0.03_PT024H.grib2 2026-05-06 18:17 1.1M
20260506T12Z_MSC_CAPS_SpecificHumidity_IsbL-0500_RLatLon0.03_PT024H.grib2 2026-05-06 18:17 1.1M
20260506T12Z_MSC_CAPS_SpecificHumidity_IsbL-0550_RLatLon0.03_PT024H.grib2 2026-05-06 18:17 1.3M
20260506T12Z_MSC_CAPS_SpecificHumidity_IsbL-0600_RLatLon0.03_PT024H.grib2 2026-05-06 18:17 1.4M
20260506T12Z_MSC_CAPS_SpecificHumidity_IsbL-0650_RLatLon0.03_PT024H.grib2 2026-05-06 18:17 1.2M
20260506T12Z_MSC_CAPS_SpecificHumidity_IsbL-0700_RLatLon0.03_PT024H.grib2 2026-05-06 18:17 1.3M
20260506T12Z_MSC_CAPS_SpecificHumidity_IsbL-0750_RLatLon0.03_PT024H.grib2 2026-05-06 18:17 1.5M
20260506T12Z_MSC_CAPS_SpecificHumidity_IsbL-0800_RLatLon0.03_PT024H.grib2 2026-05-06 18:17 1.7M
20260506T12Z_MSC_CAPS_SpecificHumidity_IsbL-0850_RLatLon0.03_PT024H.grib2 2026-05-06 18:17 1.8M
20260506T12Z_MSC_CAPS_SpecificHumidity_IsbL-0875_RLatLon0.03_PT024H.grib2 2026-05-06 18:17 1.9M
20260506T12Z_MSC_CAPS_SpecificHumidity_IsbL-0900_RLatLon0.03_PT024H.grib2 2026-05-06 18:17 2.0M
20260506T12Z_MSC_CAPS_SpecificHumidity_IsbL-0925_RLatLon0.03_PT024H.grib2 2026-05-06 18:17 1.6M
20260506T12Z_MSC_CAPS_SpecificHumidity_IsbL-0950_RLatLon0.03_PT024H.grib2 2026-05-06 18:17 1.7M
20260506T12Z_MSC_CAPS_SpecificHumidity_IsbL-0970_RLatLon0.03_PT024H.grib2 2026-05-06 18:17 1.7M
20260506T12Z_MSC_CAPS_SpecificHumidity_IsbL-0985_RLatLon0.03_PT024H.grib2 2026-05-06 18:17 1.8M
20260506T12Z_MSC_CAPS_SpecificHumidity_IsbL-1000_RLatLon0.03_PT024H.grib2 2026-05-06 18:17 1.8M
20260506T12Z_MSC_CAPS_SpecificHumidity_IsbL-1015_RLatLon0.03_PT024H.grib2 2026-05-06 18:17 1.8M
20260506T12Z_MSC_CAPS_SpecificHumidity_Sfc_RLatLon0.03_PT024H.grib2 2026-05-06 18:17 2.1M
20260506T12Z_MSC_CAPS_StormRelativeHelicity_Sfc_RLatLon0.03_PT024H.grib2 2026-05-06 18:17 3.1M
20260506T12Z_MSC_CAPS_Thickness_IsbL-1000to0500_RLatLon0.03_PT024H.grib2 2026-05-06 18:17 410K
20260506T12Z_MSC_CAPS_TotalCloudCover_Sfc_RLatLon0.03_PT024H.grib2 2026-05-06 18:17 3.9M
20260506T12Z_MSC_CAPS_TurboclineDepth_Sfc_RLatLon0.03_PT024H.nc 2026-05-06 18:13 16M
20260506T12Z_MSC_CAPS_UpwardLongwaveRadiationFlux_NTAtm_RLatLon0.03_PT024H.grib2 2026-05-06 18:17 3.0M
20260506T12Z_MSC_CAPS_UpwardShortwaveRadiationFlux_NTAtm_RLatLon0.03_PT024H.grib2 2026-05-06 18:17 2.2M
20260506T12Z_MSC_CAPS_VerticalVelocity_IsbL-0250_RLatLon0.03_PT024H.grib2 2026-05-06 18:17 602K
20260506T12Z_MSC_CAPS_VerticalVelocity_IsbL-0500_RLatLon0.03_PT024H.grib2 2026-05-06 18:17 904K
20260506T12Z_MSC_CAPS_VerticalVelocity_IsbL-0700_RLatLon0.03_PT024H.grib2 2026-05-06 18:17 1.0M
20260506T12Z_MSC_CAPS_VerticalVelocity_IsbL-0850_RLatLon0.03_PT024H.grib2 2026-05-06 18:17 1.2M
20260506T12Z_MSC_CAPS_VerticalVelocity_IsbL-1000_RLatLon0.03_PT024H.grib2 2026-05-06 18:17 1.3M
20260506T12Z_MSC_CAPS_WindDir_AGL-10m_RLatLon0.03_PT024H.grib2 2026-05-06 18:17 2.5M
20260506T12Z_MSC_CAPS_WindDir_AGL-120m_RLatLon0.03_PT024H.grib2 2026-05-06 18:17 1.3M
20260506T12Z_MSC_CAPS_WindDir_AGL-40m_RLatLon0.03_PT024H.grib2 2026-05-06 18:17 1.5M
20260506T12Z_MSC_CAPS_WindDir_AGL-80m_RLatLon0.03_PT024H.grib2 2026-05-06 18:17 1.4M
20260506T12Z_MSC_CAPS_WindDir_IsbL-0050_RLatLon0.03_PT024H.grib2 2026-05-06 18:17 1.1M
20260506T12Z_MSC_CAPS_WindDir_IsbL-0100_RLatLon0.03_PT024H.grib2 2026-05-06 18:17 1.1M
20260506T12Z_MSC_CAPS_WindDir_IsbL-0150_RLatLon0.03_PT024H.grib2 2026-05-06 18:17 1.1M
20260506T12Z_MSC_CAPS_WindDir_IsbL-0175_RLatLon0.03_PT024H.grib2 2026-05-06 18:17 1.1M
20260506T12Z_MSC_CAPS_WindDir_IsbL-0200_RLatLon0.03_PT024H.grib2 2026-05-06 18:17 1.2M
20260506T12Z_MSC_CAPS_WindDir_IsbL-0225_RLatLon0.03_PT024H.grib2 2026-05-06 18:17 1.1M
20260506T12Z_MSC_CAPS_WindDir_IsbL-0250_RLatLon0.03_PT024H.grib2 2026-05-06 18:17 1.1M
20260506T12Z_MSC_CAPS_WindDir_IsbL-0275_RLatLon0.03_PT024H.grib2 2026-05-06 18:17 1.1M
20260506T12Z_MSC_CAPS_WindDir_IsbL-0300_RLatLon0.03_PT024H.grib2 2026-05-06 18:17 1.1M
20260506T12Z_MSC_CAPS_WindDir_IsbL-0350_RLatLon0.03_PT024H.grib2 2026-05-06 18:17 1.1M
20260506T12Z_MSC_CAPS_WindDir_IsbL-0400_RLatLon0.03_PT024H.grib2 2026-05-06 18:17 1.2M
20260506T12Z_MSC_CAPS_WindDir_IsbL-0450_RLatLon0.03_PT024H.grib2 2026-05-06 18:17 1.2M
20260506T12Z_MSC_CAPS_WindDir_IsbL-0500_RLatLon0.03_PT024H.grib2 2026-05-06 18:17 1.2M
20260506T12Z_MSC_CAPS_WindDir_IsbL-0550_RLatLon0.03_PT024H.grib2 2026-05-06 18:17 1.2M
20260506T12Z_MSC_CAPS_WindDir_IsbL-0600_RLatLon0.03_PT024H.grib2 2026-05-06 18:17 1.3M
20260506T12Z_MSC_CAPS_WindDir_IsbL-0650_RLatLon0.03_PT024H.grib2 2026-05-06 18:17 1.4M
20260506T12Z_MSC_CAPS_WindDir_IsbL-0700_RLatLon0.03_PT024H.grib2 2026-05-06 18:17 1.5M
20260506T12Z_MSC_CAPS_WindDir_IsbL-0750_RLatLon0.03_PT024H.grib2 2026-05-06 18:17 1.6M
20260506T12Z_MSC_CAPS_WindDir_IsbL-0800_RLatLon0.03_PT024H.grib2 2026-05-06 18:17 1.8M
20260506T12Z_MSC_CAPS_WindDir_IsbL-0850_RLatLon0.03_PT024H.grib2 2026-05-06 18:17 1.9M
20260506T12Z_MSC_CAPS_WindDir_IsbL-0875_RLatLon0.03_PT024H.grib2 2026-05-06 18:17 2.0M
20260506T12Z_MSC_CAPS_WindDir_IsbL-0900_RLatLon0.03_PT024H.grib2 2026-05-06 18:17 2.0M
20260506T12Z_MSC_CAPS_WindDir_IsbL-0925_RLatLon0.03_PT024H.grib2 2026-05-06 18:17 2.1M
20260506T12Z_MSC_CAPS_WindDir_IsbL-0950_RLatLon0.03_PT024H.grib2 2026-05-06 18:17 2.2M
20260506T12Z_MSC_CAPS_WindDir_IsbL-0970_RLatLon0.03_PT024H.grib2 2026-05-06 18:17 2.2M
20260506T12Z_MSC_CAPS_WindDir_IsbL-0985_RLatLon0.03_PT024H.grib2 2026-05-06 18:17 2.3M
20260506T12Z_MSC_CAPS_WindDir_IsbL-1000_RLatLon0.03_PT024H.grib2 2026-05-06 18:17 2.4M
20260506T12Z_MSC_CAPS_WindDir_IsbL-1015_RLatLon0.03_PT024H.grib2 2026-05-06 18:17 2.5M
20260506T12Z_MSC_CAPS_WindGust-Max_AGL-10m_RLatLon0.03_PT024H.grib2 2026-05-06 18:17 2.5M
20260506T12Z_MSC_CAPS_WindGust-Min_AGL-10m_RLatLon0.03_PT024H.grib2 2026-05-06 18:17 2.3M
20260506T12Z_MSC_CAPS_WindGust_AGL-10m_RLatLon0.03_PT024H.grib2 2026-05-06 18:17 2.5M
20260506T12Z_MSC_CAPS_WindSpeed_AGL-10m_RLatLon0.03_PT024H.grib2 2026-05-06 18:17 2.1M
20260506T12Z_MSC_CAPS_WindSpeed_AGL-120m_RLatLon0.03_PT024H.grib2 2026-05-06 18:17 1.1M
20260506T12Z_MSC_CAPS_WindSpeed_AGL-40m_RLatLon0.03_PT024H.grib2 2026-05-06 18:17 1.2M
20260506T12Z_MSC_CAPS_WindSpeed_AGL-80m_RLatLon0.03_PT024H.grib2 2026-05-06 18:17 1.2M
20260506T12Z_MSC_CAPS_WindSpeed_IsbL-0050_RLatLon0.03_PT024H.grib2 2026-05-06 18:17 933K
20260506T12Z_MSC_CAPS_WindSpeed_IsbL-0100_RLatLon0.03_PT024H.grib2 2026-05-06 18:17 1.3M
20260506T12Z_MSC_CAPS_WindSpeed_IsbL-0150_RLatLon0.03_PT024H.grib2 2026-05-06 18:17 1.0M
20260506T12Z_MSC_CAPS_WindSpeed_IsbL-0175_RLatLon0.03_PT024H.grib2 2026-05-06 18:17 1.2M
20260506T12Z_MSC_CAPS_WindSpeed_IsbL-0200_RLatLon0.03_PT024H.grib2 2026-05-06 18:17 1.4M
20260506T12Z_MSC_CAPS_WindSpeed_IsbL-0225_RLatLon0.03_PT024H.grib2 2026-05-06 18:17 1.3M
20260506T12Z_MSC_CAPS_WindSpeed_IsbL-0250_RLatLon0.03_PT024H.grib2 2026-05-06 18:17 1.0M
20260506T12Z_MSC_CAPS_WindSpeed_IsbL-0275_RLatLon0.03_PT024H.grib2 2026-05-06 18:17 1.0M
20260506T12Z_MSC_CAPS_WindSpeed_IsbL-0300_RLatLon0.03_PT024H.grib2 2026-05-06 18:17 1.0M
20260506T12Z_MSC_CAPS_WindSpeed_IsbL-0350_RLatLon0.03_PT024H.grib2 2026-05-06 18:17 1.0M
20260506T12Z_MSC_CAPS_WindSpeed_IsbL-0400_RLatLon0.03_PT024H.grib2 2026-05-06 18:17 1.0M
20260506T12Z_MSC_CAPS_WindSpeed_IsbL-0450_RLatLon0.03_PT024H.grib2 2026-05-06 18:17 1.3M
20260506T12Z_MSC_CAPS_WindSpeed_IsbL-0500_RLatLon0.03_PT024H.grib2 2026-05-06 18:17 1.4M
20260506T12Z_MSC_CAPS_WindSpeed_IsbL-0550_RLatLon0.03_PT024H.grib2 2026-05-06 18:17 1.4M
20260506T12Z_MSC_CAPS_WindSpeed_IsbL-0600_RLatLon0.03_PT024H.grib2 2026-05-06 18:17 1.4M
20260506T12Z_MSC_CAPS_WindSpeed_IsbL-0650_RLatLon0.03_PT024H.grib2 2026-05-06 18:17 1.5M
20260506T12Z_MSC_CAPS_WindSpeed_IsbL-0700_RLatLon0.03_PT024H.grib2 2026-05-06 18:17 1.5M
20260506T12Z_MSC_CAPS_WindSpeed_IsbL-0750_RLatLon0.03_PT024H.grib2 2026-05-06 18:17 1.6M
20260506T12Z_MSC_CAPS_WindSpeed_IsbL-0800_RLatLon0.03_PT024H.grib2 2026-05-06 18:17 1.7M
20260506T12Z_MSC_CAPS_WindSpeed_IsbL-0850_RLatLon0.03_PT024H.grib2 2026-05-06 18:17 1.8M
20260506T12Z_MSC_CAPS_WindSpeed_IsbL-0875_RLatLon0.03_PT024H.grib2 2026-05-06 18:17 1.8M
20260506T12Z_MSC_CAPS_WindSpeed_IsbL-0900_RLatLon0.03_PT024H.grib2 2026-05-06 18:17 1.9M
20260506T12Z_MSC_CAPS_WindSpeed_IsbL-0925_RLatLon0.03_PT024H.grib2 2026-05-06 18:17 1.9M
20260506T12Z_MSC_CAPS_WindSpeed_IsbL-0950_RLatLon0.03_PT024H.grib2 2026-05-06 18:17 1.9M
20260506T12Z_MSC_CAPS_WindSpeed_IsbL-0970_RLatLon0.03_PT024H.grib2 2026-05-06 18:17 2.0M
20260506T12Z_MSC_CAPS_WindSpeed_IsbL-0985_RLatLon0.03_PT024H.grib2 2026-05-06 18:17 2.0M
20260506T12Z_MSC_CAPS_WindSpeed_IsbL-1000_RLatLon0.03_PT024H.grib2 2026-05-06 18:17 2.0M
20260506T12Z_MSC_CAPS_WindSpeed_IsbL-1015_RLatLon0.03_PT024H.grib2 2026-05-06 18:17 2.1M
20260506T12Z_MSC_CAPS_WindU_AGL-10m_RLatLon0.03_PT024H.grib2 2026-05-06 18:17 1.9M
20260506T12Z_MSC_CAPS_WindU_AGL-120m_RLatLon0.03_PT024H.grib2 2026-05-06 18:17 910K
20260506T12Z_MSC_CAPS_WindU_AGL-40m_RLatLon0.03_PT024H.grib2 2026-05-06 18:17 1.2M
20260506T12Z_MSC_CAPS_WindU_AGL-80m_RLatLon0.03_PT024H.grib2 2026-05-06 18:17 1.2M
20260506T12Z_MSC_CAPS_WindU_IsbL-0050_RLatLon0.03_PT024H.grib2 2026-05-06 18:17 931K
20260506T12Z_MSC_CAPS_WindU_IsbL-0100_RLatLon0.03_PT024H.grib2 2026-05-06 18:17 953K
20260506T12Z_MSC_CAPS_WindU_IsbL-0150_RLatLon0.03_PT024H.grib2 2026-05-06 18:17 922K
20260506T12Z_MSC_CAPS_WindU_IsbL-0175_RLatLon0.03_PT024H.grib2 2026-05-06 18:17 737K
20260506T12Z_MSC_CAPS_WindU_IsbL-0200_RLatLon0.03_PT024H.grib2 2026-05-06 18:17 887K
20260506T12Z_MSC_CAPS_WindU_IsbL-0225_RLatLon0.03_PT024H.grib2 2026-05-06 18:17 902K
20260506T12Z_MSC_CAPS_WindU_IsbL-0250_RLatLon0.03_PT024H.grib2 2026-05-06 18:17 921K
20260506T12Z_MSC_CAPS_WindU_IsbL-0275_RLatLon0.03_PT024H.grib2 2026-05-06 18:17 925K
20260506T12Z_MSC_CAPS_WindU_IsbL-0300_RLatLon0.03_PT024H.grib2 2026-05-06 18:17 720K
20260506T12Z_MSC_CAPS_WindU_IsbL-0350_RLatLon0.03_PT024H.grib2 2026-05-06 18:17 731K
20260506T12Z_MSC_CAPS_WindU_IsbL-0400_RLatLon0.03_PT024H.grib2 2026-05-06 18:17 954K
20260506T12Z_MSC_CAPS_WindU_IsbL-0450_RLatLon0.03_PT024H.grib2 2026-05-06 18:17 1.0M
20260506T12Z_MSC_CAPS_WindU_IsbL-0500_RLatLon0.03_PT024H.grib2 2026-05-06 18:17 1.0M
20260506T12Z_MSC_CAPS_WindU_IsbL-0550_RLatLon0.03_PT024H.grib2 2026-05-06 18:17 915K
20260506T12Z_MSC_CAPS_WindU_IsbL-0600_RLatLon0.03_PT024H.grib2 2026-05-06 18:17 944K
20260506T12Z_MSC_CAPS_WindU_IsbL-0650_RLatLon0.03_PT024H.grib2 2026-05-06 18:17 1.2M
20260506T12Z_MSC_CAPS_WindU_IsbL-0700_RLatLon0.03_PT024H.grib2 2026-05-06 18:17 1.3M
20260506T12Z_MSC_CAPS_WindU_IsbL-0750_RLatLon0.03_PT024H.grib2 2026-05-06 18:17 1.1M
20260506T12Z_MSC_CAPS_WindU_IsbL-0800_RLatLon0.03_PT024H.grib2 2026-05-06 18:17 1.1M
20260506T12Z_MSC_CAPS_WindU_IsbL-0850_RLatLon0.03_PT024H.grib2 2026-05-06 18:17 1.2M
20260506T12Z_MSC_CAPS_WindU_IsbL-0875_RLatLon0.03_PT024H.grib2 2026-05-06 18:17 1.3M
20260506T12Z_MSC_CAPS_WindU_IsbL-0900_RLatLon0.03_PT024H.grib2 2026-05-06 18:17 1.3M
20260506T12Z_MSC_CAPS_WindU_IsbL-0925_RLatLon0.03_PT024H.grib2 2026-05-06 18:17 1.3M
20260506T12Z_MSC_CAPS_WindU_IsbL-0950_RLatLon0.03_PT024H.grib2 2026-05-06 18:17 1.4M
20260506T12Z_MSC_CAPS_WindU_IsbL-0970_RLatLon0.03_PT024H.grib2 2026-05-06 18:17 1.4M
20260506T12Z_MSC_CAPS_WindU_IsbL-0985_RLatLon0.03_PT024H.grib2 2026-05-06 18:17 1.4M
20260506T12Z_MSC_CAPS_WindU_IsbL-1000_RLatLon0.03_PT024H.grib2 2026-05-06 18:17 1.9M
20260506T12Z_MSC_CAPS_WindU_IsbL-1015_RLatLon0.03_PT024H.grib2 2026-05-06 18:17 1.9M
20260506T12Z_MSC_CAPS_WindV_AGL-10m_RLatLon0.03_PT024H.grib2 2026-05-06 18:17 2.0M
20260506T12Z_MSC_CAPS_WindV_AGL-120m_RLatLon0.03_PT024H.grib2 2026-05-06 18:17 1.2M
20260506T12Z_MSC_CAPS_WindV_AGL-40m_RLatLon0.03_PT024H.grib2 2026-05-06 18:17 1.2M
20260506T12Z_MSC_CAPS_WindV_AGL-80m_RLatLon0.03_PT024H.grib2 2026-05-06 18:17 1.2M
20260506T12Z_MSC_CAPS_WindV_IsbL-0050_RLatLon0.03_PT024H.grib2 2026-05-06 18:17 755K
20260506T12Z_MSC_CAPS_WindV_IsbL-0100_RLatLon0.03_PT024H.grib2 2026-05-06 18:17 779K
20260506T12Z_MSC_CAPS_WindV_IsbL-0150_RLatLon0.03_PT024H.grib2 2026-05-06 18:17 1.0M
20260506T12Z_MSC_CAPS_WindV_IsbL-0175_RLatLon0.03_PT024H.grib2 2026-05-06 18:17 726K
20260506T12Z_MSC_CAPS_WindV_IsbL-0200_RLatLon0.03_PT024H.grib2 2026-05-06 18:17 876K
20260506T12Z_MSC_CAPS_WindV_IsbL-0225_RLatLon0.03_PT024H.grib2 2026-05-06 18:17 893K
20260506T12Z_MSC_CAPS_WindV_IsbL-0250_RLatLon0.03_PT024H.grib2 2026-05-06 18:17 912K
20260506T12Z_MSC_CAPS_WindV_IsbL-0275_RLatLon0.03_PT024H.grib2 2026-05-06 18:17 916K
20260506T12Z_MSC_CAPS_WindV_IsbL-0300_RLatLon0.03_PT024H.grib2 2026-05-06 18:17 924K
20260506T12Z_MSC_CAPS_WindV_IsbL-0350_RLatLon0.03_PT024H.grib2 2026-05-06 18:17 939K
20260506T12Z_MSC_CAPS_WindV_IsbL-0400_RLatLon0.03_PT024H.grib2 2026-05-06 18:17 946K
20260506T12Z_MSC_CAPS_WindV_IsbL-0450_RLatLon0.03_PT024H.grib2 2026-05-06 18:17 965K
20260506T12Z_MSC_CAPS_WindV_IsbL-0500_RLatLon0.03_PT024H.grib2 2026-05-06 18:17 874K
20260506T12Z_MSC_CAPS_WindV_IsbL-0550_RLatLon0.03_PT024H.grib2 2026-05-06 18:17 904K
20260506T12Z_MSC_CAPS_WindV_IsbL-0600_RLatLon0.03_PT024H.grib2 2026-05-06 18:17 934K
20260506T12Z_MSC_CAPS_WindV_IsbL-0650_RLatLon0.03_PT024H.grib2 2026-05-06 18:17 969K
20260506T12Z_MSC_CAPS_WindV_IsbL-0700_RLatLon0.03_PT024H.grib2 2026-05-06 18:17 1.0M
20260506T12Z_MSC_CAPS_WindV_IsbL-0750_RLatLon0.03_PT024H.grib2 2026-05-06 18:17 1.1M
20260506T12Z_MSC_CAPS_WindV_IsbL-0800_RLatLon0.03_PT024H.grib2 2026-05-06 18:17 1.1M
20260506T12Z_MSC_CAPS_WindV_IsbL-0850_RLatLon0.03_PT024H.grib2 2026-05-06 18:17 1.2M
20260506T12Z_MSC_CAPS_WindV_IsbL-0875_RLatLon0.03_PT024H.grib2 2026-05-06 18:17 1.2M
20260506T12Z_MSC_CAPS_WindV_IsbL-0900_RLatLon0.03_PT024H.grib2 2026-05-06 18:17 1.3M
20260506T12Z_MSC_CAPS_WindV_IsbL-0925_RLatLon0.03_PT024H.grib2 2026-05-06 18:17 1.3M
20260506T12Z_MSC_CAPS_WindV_IsbL-0950_RLatLon0.03_PT024H.grib2 2026-05-06 18:17 1.7M
20260506T12Z_MSC_CAPS_WindV_IsbL-0970_RLatLon0.03_PT024H.grib2 2026-05-06 18:17 1.8M
20260506T12Z_MSC_CAPS_WindV_IsbL-0985_RLatLon0.03_PT024H.grib2 2026-05-06 18:17 1.8M
20260506T12Z_MSC_CAPS_WindV_IsbL-1000_RLatLon0.03_PT024H.grib2 2026-05-06 18:17 2.0M
20260506T12Z_MSC_CAPS_WindV_IsbL-1015_RLatLon0.03_PT024H.grib2 2026-05-06 18:17 2.0M